| time (UTC) | temp C | wind direction | speed KPH | gust KPH | rain 1hr cm | rain 24hr cm | rain mn cm | humidity % | barometer mb |
| 20260504081558 | 2 | 0 | 0.0 | 0.0 | 0.00 | 0.00 | 0.00 | 89 | 1012.2 |
| 20260504070104 | 2 | 0 | 0.0 | 0.0 | 0.00 | 0.00 | 0.00 | 87 | 1011.9 |
| 20260504044554 | 3 | 0 | 0.0 | 1.6 | 0.00 | 0.00 | 0.00 | 81 | 1011.8 |
| 20260504043059 | 3 | 0 | 0.0 | 1.6 | 0.00 | 0.00 | 0.00 | 80 | 1011.6 |
| 20260504041553 | 4 | 0 | 0.0 | 3.2 | 0.00 | 0.00 | 0.00 | 80 | 1011.7 |
| 20260504040052 | 4 | 0 | 0.0 | 3.2 | 0.00 | 0.00 | 0.00 | 79 | 1011.5 |
| 20260504034608 | 5 | 207 | 1.6 | 3.2 | 0.00 | 0.00 | 0.00 | 78 | 1011.3 |
| 20260504033056 | 5 | 207 | 0.0 | 1.6 | 0.00 | 0.00 | 0.00 | 77 | 1011.4 |
| 20260504031549 | 5 | 0 | 0.0 | 0.0 | 0.00 | 0.00 | 0.00 | 77 | 1011.4 |
| 20260504030056 | 6 | 0 | 0.0 | 1.6 | 0.00 | 0.00 | 0.00 | 76 | 1011.3 |
| 20260504024553 | 6 | 207 | 0.0 | 1.6 | 0.00 | 0.00 | 0.00 | 75 | 1011.1 |
| 20260504023052 | 6 | 0 | 0.0 | 3.2 | 0.00 | 0.00 | 0.00 | 73 | 1011.2 |
| 20260504021554 | 6 | 208 | 0.0 | 1.6 | 0.00 | 0.00 | 0.00 | 70 | 1011.1 |
| 20260504020048 | 7 | 0 | 0.0 | 0.0 | 0.00 | 0.00 | 0.00 | 68 | 1011.1 |
| 20260504014601 | 7 | 0 | 0.0 | 3.2 | 0.00 | 0.00 | 0.00 | 67 | 1011.0 |
| 20260504013053 | 8 | 0 | 0.0 | 1.6 | 0.00 | 0.00 | 0.00 | 65 | 1011.0 |
| 20260504011552 | 8 | 0 | 0.0 | 3.2 | 0.00 | 0.00 | 0.00 | 64 | 1011.0 |
| 20260504010058 | 9 | 0 | 0.0 | 3.2 | 0.00 | 0.00 | 0.00 | 61 | 1010.9 |
| 20260504004550 | 10 | 0 | 1.6 | 4.8 | 0.00 | 0.00 | 0.00 | 61 | 1010.7 |
| 20260504003053 | 11 | 0 | 3.2 | 6.4 | 0.00 | 0.00 | 0.00 | 55 | 1010.6 |
| 20260504001551 | 12 | 321 | 3.2 | 9.7 | 0.00 | 0.00 | 0.00 | 48 | 1010.4 |
| 20260504000049 | 13 | 305 | 1.6 | 14.5 | 0.00 | 0.00 | 0.00 | 42 | 1010.2 |
| 20260503234550 | 13 | 300 | 3.2 | 19.3 | 0.00 | 0.00 | 0.00 | 41 | 1010.0 |
| 20260503233049 | 13 | 263 | 4.8 | 11.3 | 0.00 | 0.00 | 0.00 | 39 | 1009.9 |
| 20260503231549 | 13 | 273 | 9.7 | 19.3 | 0.00 | 0.00 | 0.00 | 39 | 1009.9 |
| 20260503230051 | 13 | 302 | 3.2 | 11.3 | 0.00 | 0.00 | 0.00 | 37 | 1009.8 |
| 20260503224550 | 14 | 311 | 9.7 | 17.7 | 0.00 | 0.00 | 0.00 | 38 | 1009.7 |
| 20260503223050 | 14 | 288 | 6.4 | 20.9 | 0.00 | 0.00 | 0.00 | 37 | 1009.6 |
| 20260503221554 | 15 | 310 | 17.7 | 25.7 | 0.00 | 0.00 | 0.00 | 31 | 1009.5 |
| 20260503220053 | 14 | 293 | 11.3 | 25.7 | 0.00 | 0.00 | 0.00 | 33 | 1009.3 |
| 20260503214551 | 15 | 355 | 6.4 | 25.7 | 0.00 | 0.00 | 0.00 | 31 | 1009.4 |
| 20260503213107 | 15 | 302 | 8.0 | 25.7 | 0.00 | 0.00 | 0.00 | 34 | 1009.2 |
| 20260503211550 | 15 | 327 | 16.1 | 29.0 | 0.00 | 0.00 | 0.00 | 31 | 1009.2 |
| 20260503204548 | 15 | 284 | 14.5 | 30.6 | 0.00 | 0.00 | 0.00 | 33 | 1009.0 |
| 20260503203101 | 14 | 303 | 11.3 | 25.7 | 0.00 | 0.00 | 0.00 | 38 | 1009.2 |
| 20260503201550 | 15 | 294 | 9.7 | 29.0 | 0.00 | 0.00 | 0.00 | 32 | 1009.3 |
| 20260503200057 | 14 | 284 | 16.1 | 32.2 | 0.00 | 0.00 | 0.00 | 36 | 1009.3 |
| 20260503194554 | 13 | 334 | 9.7 | 17.7 | 0.00 | 0.00 | 0.00 | 38 | 1009.4 |
| 20260503193101 | 13 | 352 | 11.3 | 32.2 | 0.00 | 0.00 | 0.00 | 38 | 1009.7 |
| 20260503191552 | 13 | 338 | 16.1 | 24.1 | 0.00 | 0.00 | 0.00 | 40 | 1010.0 |
| 20260503190057 | 13 | 318 | 17.7 | 27.4 | 0.00 | 0.00 | 0.00 | 36 | 1010.1 |
| 20260503184606 | 13 | 315 | 11.3 | 29.0 | 0.00 | 0.00 | 0.00 | 41 | 1010.1 |
| 20260503183109 | 13 | 311 | 16.1 | 27.4 | 0.00 | 0.00 | 0.00 | 41 | 1010.4 |
| 20260503181603 | 11 | 344 | 9.7 | 19.3 | 0.00 | 0.00 | 0.00 | 45 | 1010.5 |
| 20260503180055 | 11 | 302 | 16.1 | 24.1 | 0.00 | 0.00 | 0.00 | 42 | 1010.8 |
| 20260503174554 | 12 | 339 | 14.5 | 29.0 | 0.00 | 0.00 | 0.00 | 43 | 1010.8 |
| 20260503173100 | 11 | 298 | 12.9 | 29.0 | 0.00 | 0.00 | 0.00 | 45 | 1010.9 |
| 20260503171549 | 11 | 288 | 11.3 | 25.7 | 0.00 | 0.00 | 0.00 | 46 | 1011.2 |